Regional Weather Roundup
Issued by NWS Grand Forks, ND

Home | Current Version | Previous Version | Text Only | Print | Product List | Glossary On
Versions: 1 2 3 4 5 6 7 8 9 10 11 12 13 14 15 16 17 18 19 20 21 22 23 24 25 26 27 28 29 30 31 32 33 34 35 36 37 38 39 40 41 42 43 44 45 46 47 48 49 50
000
ASUS43 KFGF 201010
RWRFGF
PRAIRIE TO PINES  WEATHER ROUNDUP
NATIONAL WEATHER SERVICE EASTERN NORTH DAKOTA/GRAND FORKS ND
400 AM CST TUE FEB 20 2018

 **SATELLITE DATA USED TO AUGMENT SKY COVER AT AUTOMATED STATIONS**
 *****  WEATHER ACROSS EASTERN NORTH DAKOTA  *****

CITY           SKY/WX    TMP DP  RH WIND       PRES   REMARKS
GRAND FORKS    LGT SNOW   5   1  83 N12       30.10F FOG     WCI -11
GRAND FRKS AFB CLOUDY     4  -1  79 N12       30.11S WCI -12
GRAND FRKS NWS   N/A      4   2  94 N10       30.06F WCI -12
DEVILS LAKE    FLURRIES   3  -2  79 NW9       30.13R WCI -12
FARGO          LGT SNOW   6   2  83 N20       30.05R FOG     WCI -14
WAHPETON ARPT  CLOUDY     9   3  78 N14       30.03R VSB 1   WCI  -8
$$

 ***** WEATHER ACROSS CENTRAL AND WESTERN NORTH DAKOTA  *****

CITY           SKY/WX    TMP DP  RH WIND       PRES   REMARKS
BISMARCK       LGT SNOW   4   0  83 N7        30.09F FOG     WCI  -8
MINOT          LGT SNOW   4  -1  80 W5        30.10F WCI  -5
JAMESTOWN      CLOUDY     3  -1  83 N15       30.06R WCI -16
MINOT AFB      LGT SNOW   4  -1  81 W5        30.11S WCI  -6
GARRISON         N/A      2  -2  83 NW8       30.07F WCI -12
WILLISTON      CLOUDY     2  -4  76 W12       30.10F WCI -15
DICKINSON      LGT SNOW   0  -4  83 W7        30.02F FOG     WCI -13
HETTINGER      LGT SNOW   0  -5  79 NW8       30.04R WCI -14
$$

 *****  OTHER AIRPORT OBSERVATIONS IN OUR AREA  *****

CITY           SKY/WX    TMP DP  RH WIND       PRES   REMARKS
WALHALLA       LGT SNOW   3  -2  78 N7        30.12F WCI  -9
GRAFTON AIRPOR FAIR       3  -2  78 N12       30.14S WCI -13
VALLEY CITY AR LGT SNOW   1   0  92 N14       30.07R WCI -17
CANDO          CLOUDY     3   0  85 W7        30.14R WCI  -9
CAVALIER APRT  LGT SNOW   3  -2  78 N6        30.12F WCI  -8
GWINNER          N/A      3   0  85 N21       30.03R FOG     WCI -18
SHEYENNE NWR     N/A      4   1  86 N9        29.95S WCI -10
ROLLA          CLOUDY     1  -2  85 W5        30.08R WCI  -8
 ***** THE ABOVE OBSERVATIONS ARE NON NWS ARE NOT QUALITY
       CONTROLLED AND MAY MIS-REPORT RAIN FOR SNOW...
$$

  *****  WEATHER ACROSS NORTHERN MINNESOTA  *****

CITY           SKY/WX    TMP DP  RH WIND       PRES   REMARKS
FLAG ISLAND    LGT SNOW   3  -2  78 N13       30.07F WCI -14
WARROAD        LGT SNOW   3  -2  78 N8        30.06F WCI -10
ROSEAU         NOT AVBL
HALLOCK        FAIR       3   0  85 N9        30.11F WCI -11
THF RVR FALLS  LGT SNOW   4   0  83 N14       30.05F FOG     WCI -14
BAUDETTE       LGT SNOW   4   0  83 N8        30.02F FOG     WCI  -9
WASKISH        LGT SNOW   5   1  85 N7        30.00F WCI  -7
CROOKSTON      LGT SNOW   7   1  78 N12       30.08F WCI  -9
STEPHEN NDAWN    N/A      3   0  85 N9          N/A  WCI -11
GREENBUSH NDAW   N/A      3  -2  78 N12         N/A  WCI -13
$$
  *****  WEATHER ACROSS CENTRAL AND WEST MINNESOTA  *****

CITY           SKY/WX    TMP DP  RH WIND       PRES   REMARKS
FOSSTON        LGT SNOW   3   0  85 N12       30.00S WCI -13
BEMIDJI        LGT SNOW   6   1  83 N7        29.97R WCI  -6
PARK RAPIDS    LGT SNOW   7   2  80 N10       29.93R WCI  -8
ELBOW LAKE     LGT SNOW   9   6  89 N9        29.96F VSB 1   WCI  -5
WADENA         LGT SNOW   7   3  85 N8        29.94R WCI  -6
DETROIT LAKES  LGT SNOW  10   5  79 N3        29.97S
MOORHEAD       LGT SNOW   5   0  78 N17       30.05R WCI -14
FERGUS FALLS   LGT SNOW   9   5  85 N7        29.98F WCI  -3
MORRIS MN      LGT SNOW  10   7  85 N12       29.95S VSB 3/4 WCI  -4
STAPLES        LGT SNOW   9   3  78 N8        29.94R WCI  -4
$$
  *****  WEATHER ELSEWHERE ACROSS MINNESOTA  *****

CITY           SKY/WX    TMP DP  RH WIND       PRES   REMARKS
DULUTH         LGT SNOW  14  10  84 NE14      29.82F VSB 1   WCI  -1
INTRNTL FALLS  LGT SNOW   4   0  83 NE9       30.02F FOG     WCI -10
ELY            LGT SNOW   3   0  85 N3        29.95S
CLOQUET        LGT SNOW  12   9  85 N7        29.84F WCI   2
WHEATON        LGT SNOW   7   3  85 NW15G21   30.01F VSB 1   WCI -11
BRAINERD       LGT SNOW  11   5  77 N8        29.90R VSB 3/4 WCI  -1
HIBBING        LGT SNOW   5   2  87 N15       29.88F FOG     WCI -13
ALEXANDRIA     SNOW      10   6  84 N10       29.91R VSB 1/2 WCI  -4
SAINT CLOUD    SNOW      13  11  92 NW9       29.91R VSB 1/2 WCI   1
MINNEAPOLIS    LGTSLEET  20  19  96 N5        29.84S FOG     WCI  13
$$

  *****  WEATHER ACROSS SOUTH DAKOTA  *****

CITY           SKY/WX    TMP DP  RH WIND       PRES   REMARKS
SIOUX FALLS    LGT SNOW   9   5  84 N10       29.87F FOG     WCI  -5
BROOKINGS      LGT SNOW   7   1  78 N10       29.89S FOG     WCI  -8
WATERTOWN      LGT SNOW   4   1  88 N9        29.89F FOG     WCI -10
HURON          MOCLDY     4   0  83 NW14      30.02R WCI -14
SISSETON         N/A      5   2  87 N18       29.96F WCI -15
ABERDEEN       LGT SNOW   4   0  83 N15       30.01F FOG     WCI -14
MITCHELL       FLURRIES   6   1  80 N16       29.99F WCI -12
PIERRE         LGT SNOW   3  -1  83 NW16      30.05R FOG     WCI -16
MOBRIDGE       LGT SNOW   4  -2  76 N16       30.02F WCI -15
RAPID CITY     LGT SNOW  -2  -7  79 N12       29.99R WCI -20
$$

  *****  SOME WEATHER IN NEARBY STATES *****

CITY           SKY/WX    TMP DP  RH WIND       PRES   REMARKS
GLASGOW MT     CLOUDY    -6 -11  79 W6        30.10S WCI -19
GREAT FALLS MT FAIR     -19 -24  77 SW10      29.97R WCI -40
CHEYENNE WY    CLOUDY    -5 -10  79 N7        29.73R WCI -19
SCOTTSBLUFF NE FAIR       0  -6  76 NW8       29.95R WCI -14
OMAHA NE       FRZ DRZL  21  18  88 NW15      29.90S FOG     WCI   8
DES MOINES IA  FRZ DRZL  29  27  92 W9        29.82F WCI  20
DAVENPORT IA   HVY RAIN  39  36  89 SE9       29.80S FOG
CHICAGO IL     RAIN      60  58  92 SW17      29.81S FOG
EAU CLAIRE WI  CLOUDY    21  19  92 NE7       29.78F WCI  12
LA CROSSE WI   FRZ RAIN  31  29  92 NE6       29.76F FOG
$$

  *****  SOME NATIONAL WEATHER *****

CITY           SKY/WX    TMP DP  RH WIND       PRES   REMARKS
LA GUARDIA NY  CLOUDY    51  48  89 W9        30.29R
RALEIGH NC     FOG       52  52 100 CALM      30.42R VSB 1/4
ATLANTA GA     FOG       59  59 100 E6        30.34R VSB 1/2
NEW ORLEANS LA FAIR      70  68  93 SE10      30.12S
OKLAHOMA CITY  CLOUDY    67  62  84 S15       29.73F
ALBUQUERQUE NM FLURRIES  30  20  66 N13G22    29.87R WCI  20
SALT LAKE CITY MOCLDY    20  17  88 NW3       29.90R
LOS ANGELES CA FAIR      48  18  30 NW8       30.08R
BOISE ID       FAIR      13   2  61 NW12      30.06  WCI  -1
SEATTLE WA     MOCLDY    28  18  66 SE6       30.19F WCI  22
$$

*** WEATHER ACROSS MANITOBA...SASKATCHEWAN AND ONTARIO ***
                ***ONTARIO***

CITY           SKY/WX    TMP DP  RH WIND       PRES   REMARKS
GERALDTON      LGT SNOW  -8 -15  71 NE14G24   30.17F DRFTSNOWWCI -28
THUNDER BAY    FLURRIES   5   1  85 N7        30.01F WCI  -7
SIOUX LOOKOUT  FLURRIES  -2 -11  65 NE5       30.09F WCI -12
TORONTO        FOG       37  36  93 CALM      30.00S VSB 1/8
BIG TROUT LK   CLEAR    -20 -33  52 S5        30.34S WCI -33
PICKLE LAKE    NOT AVBL
DRYDEN         FLURRIES   0  -8  71 NE12      30.05F WCI -18
KENORA         CLOUDY     1  -9  60 NE8       30.07F WCI -12
$$
                *** MANITOBA***

CITY           SKY/WX    TMP DP  RH WIND       PRES   REMARKS
BRANDON        FLURRIES   1  -4  78 W6        30.12S WCI -10
DAUPHIN        PTCLDY     0  -8  71 SW8       30.12F WCI -15
ISLAND LAKE    NOT AVBL
PILOT MOUND      N/A      1  -2  85 W2          N/A
THE PAS        CLEAR    -11 -17  77 SE7       30.01S WCI -26
THOMPSON       PTCLDY   -13 -18  77 SE3       30.06F
WINNIPEG       LGT SNOW   1  -8  66 N5        30.14F WCI  -8
LYNN LAKE      CLOUDY   -15 -18  84 CALM      29.91F
CHURCHILL      PTCLDY   -22 -31  63 E9        30.32F WCI -42
GILLAM         CLEAR    -17 -26  63 SE5       30.20F WCI -29
$$
                ***SASKATCHEWAN***

CITY           SKY/WX    TMP DP  RH WIND       PRES   REMARKS
ESTEVAN        CLOUDY     1  -4  78 W8        30.08F WCI -12
KINDERSLEY     CLOUDY     1  -8  66 W12G17    29.95S WCI -15
LLOYDMINSTER   CLOUDY     5  -4  66 W15       29.86S WCI -13
PRINCE ALBERT  MOCLDY   -11 -17  77 S5        29.95F WCI -23
REGINA         CLOUDY    -6 -11  77 SW13      30.05S WCI -25
YORKTON        MOCLDY    -8 -13  77 S10       30.04R WCI -26
N. BATTLEFORD  FLURRIES   5  -4  66 SW8       29.93S WCI  -8
LA RONGE       FLURRIES   1  -4  78 S5        29.87S WCI  -8
SASKATOON      CLOUDY     0  -8  71 SW14      29.97S WCI -19
SWIFT CURRENT  CLEAR     -8 -15  71 W13       29.95F WCI -28
$$
NOTE: THESE ARE AUTOMATED STATIONS WITH LIMITED QUALITY CONTROL
      "FAIR" INDICATES FEW OR NO CLOUDS BELOW 12,000 FEET WITH NO
      SIGNIFICANT WEATHER AND/OR OBSTRUCTIONS TO VISIBILITY.
      SKY/WX - SKY CONDITION AND SIGNIFICANT WEATHER.
      TMP - AIR TEMPERATURE.    DP   - DEWPOINT TEMPERATURE.
      RH  - RELATIVE HUMIDITY.  PRES - PRESSURE.
      HX  - HEAT INDEX.         WCI  - WIND CHILL INDEX.
$




USA.gov is the U.S. government's official web portal to all federal, state and local government web resources and services.